Regional Weather Roundup
Issued by NWS Charleston, SC

Home | Current Version | Previous Version | Text Only | Print | Product List | Glossary On
Versions: 1 2 3 4 5 6 7 8 9 10 11 12 13 14 15 16 17 18 19 20 21 22 23 24 25 26 27 28 29 30 31 32 33 34 35 36 37 38 39 40 41 42 43 44 45 46 47 48 49 50
000
ASUS42 KCHS 170425
RWRCHS

REGIONAL WEATHER ROUNDUP
NATIONAL WEATHER SERVICE CHARLESTON SC
1200 AM EDT THU APR 17 2014

NOTE: "FAIR" INDICATES FEW OR NO CLOUDS BELOW 12,000 FEET WITH NO
SIGNIFICANT WEATHER AND/OR OBSTRUCTIONS TO VISIBILITY.

NOT ALL STATIONS ARE QUALITY CONTROLLED BY THE NATIONAL
WEATHER SERVICE. USE DATA WITH CAUTION...ESPECIALLY
DEWPOINT OBSERVATIONS.

SCZ027-030-031-034>040-042>050-170500-
...SOUTH CAROLINA...

CITY           SKY/WX    TMP DP  RH WIND       PRES   REMARKS
N CHARLESTON   PTCLDY    49  40  71 NE7       30.36F
WATERFRONT PRK   N/A     54 N/A N/A NE13        N/A
FORT JOHNSON     N/A     54  43  66 E10G17    30.41S
MOUNT PLEASANT FAIR     N/A N/A N/A NE6       30.36S
JOHNS ISLAND   PTCLDY    54  43  66 NE9G20    30.35F
PINOPOLIS        N/A     50  41  71 E9        30.30R
MONCKS CORNER  FAIR      45  43  93 CALM      30.38S
SUMMERVILLE    FAIR      43  41  93 CALM      30.37F
BEAUFORT MCAS  CLEAR     54  40  59 E12G21    30.34F
BEAUFORT ARPT  FAIR      54  43  66 NE20G25   30.33S
HILTON HEAD IS CLEAR     55  43  62 N12G17    30.33F
GEORGETOWN     NOT AVBL
WALTERBORO     CLEAR     43  43 100 NE5       30.38R
ORANGEBURG     CLEAR     45  36  70 CALM      30.38S
BARNWELL       FAIR      45  37  76 E5        30.38R
AIKEN          FAIR      45  34  65 NE5       30.39S
MANNING        FAIR      41 N/A N/A CALM      30.39S
KINGSTREE      NOT AVBL
COLUMBIA       CLEAR     50  29  44 E8        30.38R
SUMTER         CLEAR     40  33  74 NE6       30.39R WCI  36
FLORENCE       CLEAR     41  33  73 E6        30.41R
MYRTLE BEACH   PTCLDY    48  39  71 NE10      30.39S
N MYRTLE BEACH CLEAR     45  37  73 N7        30.40R

$$

GAZ063-065-086>088-099>101-113>116-118-119-134-136>141-150-170500-
...GEORGIA...

CITY           SKY/WX    TMP DP  RH WIND       PRES   REMARKS
SAVANNAH ARPT  PTCLDY    50  41  71 NE7       30.32F
HUNTER AAF     CLEAR     54  42  63 NE12G17   30.29F
FORT STEWART   CLEAR     48  44  87 NE5       30.29S
STATESBORO     NOT AVBL
SYLVANIA       CLEAR     47  42  81 E3        30.36R
CLAXTON        FAIR      48  46  93 NE6       30.33S
THOMSON        CLEAR     39  39  98 CALM      30.41R
AUGUSTA-BUSH   CLEAR     42  35  76 CALM      30.36R
AUGUSTA-DANIEL CLEAR     50  32  50 NE9       30.36R
SWAINSBORO     FAIR      45  41  87 E3        30.35R
VIDALIA        CLEAR     48  43  81 E7        30.32S
ALMA           CLEAR     47  41  80 CALM      30.30S
WAYCROSS       NOT AVBL
JESUP          FAIR      46  45  93 NE6       30.30R
BRUNSWICK      CLOUDY    57  52  82 NE15G24   30.28F
SAINT SIMONS   LGT RAIN  58  51  78 NE17G28   30.27R

$$

SCZ027-028-034-036>038-045-046-048>050-GAZ119-141-170500-
...LAKE AND SUPPLEMENTAL COASTAL OBSERVATIONS...

STATION/POSITION TIME  TEMP    WIND        PRES    WAVE   SWELL
                       AIR SEA DIR/SP/G            HT/PER HT/PER/DIR
                 (UTC) (F)     (DEG/KT/KT) (MB)    (FT/S) (FT/S/D)
UPR LAKE MARION  NOT AVBL
WINYAH BAY       0400   54      60/ 17     1028.0S
LAKE MURRAY      0400   49      60/  2/  5 1028.1S
ACE BASIN NERRS  0400   52      50/  5     1027.0S
FORT PULASKI     0400   57 60   60/ 20/ 24 1026.7R
SAPELO ISLAND    0400   57      50/ 13     1025.0S

$$

ANZ086-088-AMZ330-350-352-354-374-454-470-170500-
...C-MAN AND BUOY OBSERVATIONS...

STATION/POSITION TIME  TEMP    WIND        PRES    WAVE   SWELL
                       AIR SEA DIR/SP/G            HT/PER HT/PER/DIR
                 (UTC) (F)     (DEG/KT/KT) (MB)    (FT/S) (FT/S/D)
FOLLY BEACH CMAN 0400   56      50/ 21/ 24 1027.9F
BUOY 41004       NOT AVBL
BUOY 41008       0400   60 64   50/ 23/ 29 1024.2F   7/ 7   3/120/12
5E ST. MARYS GA  0400      64                N/A     8/ 6   2/ 80/11
FRYING PAN BUOY  0400   53 65   40/ 23/ 29 1027.5R   8/ 7   3/ 70/10
BUOY 41025       NOT AVBL
CAPE LOOKOUT NC  0400   46      20/ 16/ 18 1029.1F
BUOY 41002       NOT AVBL
BUOY 41010       0400   72 76   60/ 16/ 19 1021.0S   8/11   5/ 30/11
BUOY 41012       NOT AVBL
ST AUGUSTINE FL  0400   63      30/ 22/ 23 1023.5S


$$


USA.gov is the U.S. government's official web portal to all federal, state and local government web resources and services.